Regional Weather Roundup
Issued by NWS

Home | Current Version | Previous Version | Graphics & Text | Print | Product List | Glossary On
Versions: 1 2 3 4 5 6 7 8 9 10 11 12 13 14 15 16 17 18 19 20 21 22 23 24 25 26 27 28 29 30 31 32 33 34 35 36 37 38 39 40 41 42 43 44 45 46 47 48 49 50
000
ASUS43 KFSD 271910
RWRSD

WEATHER ROUNDUP FOR SOUTH DAKOTA
NATIONAL WEATHER SERVICE SIOUX FALLS SD
200 PM CDT TUE SEP 27 2016

NOTE: "FAIR" INDICATES FEW OR NO CLOUDS BELOW 12,000 FEET WITH NO
SIGNIFICANT WEATHER AND/OR OBSTRUCTIONS TO VISIBILITY.


SDZ001>005-009-010-012>017-272000-
NORTHWEST AND NORTH CENTRAL SOUTH DAKOTA

CITY           SKY/WX    TMP DP  RH WIND       PRES   REMARKS
BUFFALO          N/A     79  47  32 W8        29.94F
FAITH            N/A     77  45  32 NW10      29.97F
MOBRIDGE       SUNNY     74  44  34 NW9       29.92F
$$

SDZ012>016-024>037-041>051-057-063-072>074-272000-
SOUTHWEST AND SOUTH CENTRAL SOUTH DAKOTA

CITY           SKY/WX    TMP DP  RH WIND       PRES   REMARKS
RAPID CTY ARPT SUNNY     80  43  26 N9        30.02F
PIERRE         SUNNY     76  44  32 W12       29.93F
CUSTER         SUNNY     76  31  19 W14G23    30.14F
ELLSWORTH AFB  SUNNY     79  44  28 N12       30.02F
PHILIP         SUNNY     81  44  27 NW7G18    29.96F
PINE RIDGE     SUNNY     81  42  25 SW9       30.04F
WINNER         FAIR      81  42  25 NW15G21   29.95F
$$

SDZ004>011-016>023-039-040-272000-
NORTHEAST SOUTH DAKOTA

CITY           SKY/WX    TMP DP  RH WIND       PRES   REMARKS
ABERDEEN       SUNNY     72  36  26 N17G24    29.91F
WATERTOWN      SUNNY     67  39  35 NW17      29.90F
BROOKINGS      SUNNY     67  38  34 NW20G29   29.89F
SISSETON         N/A     68  32  26 NW18G26   29.86F
$$

SDZ017-020-022-023-036>040-048>070-272000-
SOUTHEAST SOUTH DAKOTA

CITY           SKY/WX    TMP DP  RH WIND       PRES   REMARKS
SIOUX FALLS    MOSUNNY   73  42  32 NW20G29   29.90F
HURON          SUNNY     74  42  31 NW13      29.90F
CHAMBERLAIN    SUNNY     78  45  30 NW7G16    29.94F
MITCHELL       SUNNY     76  43  30 NW13G21   29.92F
YANKTON        SUNNY     73  43  33 W15       29.92F
$$

ABBREVIATIONS USED IN REMARKS
   TC - TEMPERATURE IN CELSIUS
  WCI - WIND CHILL INDEX
   HX - HEAT INDEX
  VSB - VISIBILITY




USA.gov is the U.S. government's official web portal to all federal, state and local government web resources and services.